STARLINK-34094, 63822

Orbit data source: Space-Track

STARLINK-34094, 63822 is a payload satellite owned by SpaceX/Seattle (US) in LEO that was launched on Sun, 04 May 2025 UTC via an FALCON 9 launch vehicle from the Air Force Eastern Test Range (AFETR). Payload-class satellites include a variety of spacecraft equipped with specific instruments for various scientific and technological missions. These include communications satellites like Starlink; space stations such as the ISS; scientific satellites like the Hubble; Earth observation satellites from companies like Planet Labs, Umbra, and HawkEye 360; GPS; miniature CubeSats for education and research; and military/defense satellites.

Loading next visibility...
Identifier
63822, 2025-092U
Orbit
LEO
Country
Flag of USUS
Related business
Manufacturer
SpaceX/Seattle
Mission
Operational Commercial Communications
Bus & Motor
STARLINK V2MO, Unknown motor
Mass
575 kg wet, ~530 kg dry
Launch date (UTC)
2025-05-04 (9 months ago)
Launch vehicle
FALCON 9
Launch site
Air Force Eastern Test Range (AFETR)
Object type
Payload
Rocket body
Debris
Shape & HBR
Box + 2 Pan, 17.7 m
Radar Cross Section
36.964 m², Large (>1 m²)

Expand to show TLE details & history
Last TLE update: 23 hours ago

TLE from 23 hours ago
0 STARLINK-34094
1 63822U 25092U   26034.24534521  .00030996  00000-0  11314-2 0  9999
2 63822  43.0010   3.8522 0001434 268.3279  91.7408 15.27574228 43436
Epoch: 2026-02-03T05:53Z
TLE epoch observation values (Epoch: 2026-02-03T05:53:17.826Z)
Latitude
-0.00003°
Longitude
142.09885°
Altitude
482.872 km
Speed
7.626 km/s
True Right ascension
00h 15m 24s
True Declination
0° 00' 00"
Sunlit
Object was in daylight at epoch
Visualization orbit readout
Latitude
Unknown
Longitude
Unknown
Altitude
Unknown
Speed
Unknown
Apparent Right ascension
Unknown
Apparent Declination
Unknown
Sunlit
N/A
Visualization observer readout
Local Sidereal Time
07:10:58
Azimuth
Unknown
Elevation
Unknown
Doppler factor
Unknown
Orbital elements
Apogee altitude
485.996 km
Perigee altitude
484.027 km
Semi-major axis
6,863.148 km
Eccentricity
0.00014
Inclination
43.001°
RAAN
3.8522°
Arg. of periapsis
268.3279°
True anomaly
91.75722°
Mean anomaly
91.7408°
Eccentric anomaly
91.74901°
Mean motion
3.81732 °/min
Orbital period
94.31 mins
BSTAR
0.0011314
Loading maneuver chart data...
Computing Atmospheric mass density...
Loading historical data...
Loading historical data...
Loading historical data...
Loading historical data...
Loading historical data...
Loading historical data...
Loading historical data...

Documentation

Showing up to 5 results
|